{"data":{"norad_id":64276,"intl_designator":"2025-120W","name":"STARLINK-34350","alt_names":[],"object_type":"PAYLOAD","status":"ACTIVE","operator":null,"country":"US","launch_date":"2025-06-04","launch_site_code":"AFWTR","launch_vehicle":null,"mission":null,"orbit_class":"UNKNOWN","rcs_meters":null,"size_class":null,"mass_kg":null,"dimensions":null,"purposes":["comms"],"wikipedia_slug":null,"has_3d_model":false,"image_url":null,"decayed_at":null,"tle_current":{"epoch":"2026-09-20T08:39:21.704832Z","epoch_age_seconds":149661,"freshness":"FRESH","line1":"1 64276U 25120W   26263.36066788  .00018799  00000+0  56602-3 0  9993","line2":"2 64276  53.1588 286.6075 0001203  83.4613 276.6526 15.34404834 73800","mean_motion":15.34404834,"eccentricity":0.0001203,"inclination_deg":53.1588,"raan_deg":286.6075,"arg_perigee_deg":83.4613,"mean_anomaly_deg":276.6526,"bstar":0.00056602,"rev_number":7380,"period_min":93.847462422684,"perigee_km":461.86592122563,"apogee_km":463.51182393058,"semimajor_km":6840.8258725781,"source":"CELESTRAK","updated_at":"2026-09-21T09:00:35.285866Z"}}}